• In Belgium
  • List of Countries
  • For 7 days
  • Water Temperature
  • Satellite Maps
  • Weather Map
  • Weather Widgets
  • user-avatar
    Login

    Hourly Weather Burdur

    Today, 18 July, Wednesday

    Time Temperature Precipitation Wind Pressure Humidity
    00:00 +23°C° 0 mm 1 mps 673 mmHg 42%
    01:00 +23°C° 0 mm 1 mps 673 mmHg 44%
    02:00 +22°C° 0 mm 1 mps 673 mmHg 45%
    03:00 +22°C° 0 mm 1 mps 673 mmHg 46%
    04:00 +21°C° 0 mm 1 mps 672 mmHg 47%
    05:00 +21°C° 0 mm 1 mps 672 mmHg 48%
    06:00 +23°C° 0 mm 1 mps 672 mmHg 42%
    07:00 +26°C° 0 mm 1 mps 673 mmHg 36%
    08:00 +28°C° 0 mm 1 mps 673 mmHg 30%
    09:00 +29°C° 0 mm 1 mps 673 mmHg 27%
    10:00 +31°C° 0 mm 2 mps 673 mmHg 24%
    11:00 +32°C° 0 mm 2 mps 673 mmHg 21%
    12:00 +34°C° 0 mm 3 mps 673 mmHg 20%
    13:00 +34°C° 0 mm 3 mps 673 mmHg 19%
    14:00 +35°C° 0 mm 4 mps 673 mmHg 17%
    15:00 +34°C° 0 mm 4 mps 672 mmHg 19%
    16:00 +34°C° 0 mm 4 mps 672 mmHg 20%
    17:00 +33°C° 0 mm 4 mps 672 mmHg 22%
    18:00 +32°C° 0 mm 4 mps 672 mmHg 28%
    19:00 +29°C° 0 mm 3 mps 672 mmHg 33%
    20:00 +27°C° 0 mm 2 mps 672 mmHg 39%
    21:00 +26°C° 0 mm 2 mps 672 mmHg 44%
    22:00 +25°C° 0 mm 2 mps 672 mmHg 49%
    23:00 +24°C° 0 mm 1 mps 672 mmHg 54%

    Tomorrow, 19 July, Thursday

    Time Temperature Precipitation Wind Pressure Humidity
    00:00 +23°C° 0 mm 1 mps 672 mmHg 56%
    01:00 +23°C° 0 mm 1 mps 672 mmHg 58%
    02:00 +22°C° 0 mm 1 mps 672 mmHg 60%
    03:00 +22°C° 0 mm 1 mps 672 mmHg 62%
    04:00 +21°C° 0 mm 1 mps 672 mmHg 65%
    05:00 +21°C° 0 mm 1 mps 672 mmHg 67%
    06:00 +21°C° 0 mm 2 mps 672 mmHg 62%
    07:00 +24°C° 0 mm 2 mps 672 mmHg 56%
    08:00 +25°C° 0 mm 2 mps 673 mmHg 51%
    09:00 +26°C° 0 mm 2 mps 673 mmHg 46%
    10:00 +28°C° 0 mm 2 mps 673 mmHg 41%
    11:00 +29°C° 0 mm 2 mps 674 mmHg 37%
    12:00 +30°C° 0 mm 2 mps 673 mmHg 34%
    13:00 +30°C° 0 mm 2 mps 673 mmHg 32%
    14:00 +31°C° 0 mm 3 mps 673 mmHg 30%
    15:00 +31°C° 0 mm 3 mps 673 mmHg 30%
    16:00 +30°C° 0 mm 3 mps 673 mmHg 30%
    17:00 +30°C° 0 mm 4 mps 673 mmHg 31%
    18:00 +29°C° 0 mm 3 mps 673 mmHg 34%
    19:00 +27°C° 0 mm 3 mps 673 mmHg 37%
    20:00 +26°C° 0 mm 3 mps 673 mmHg 41%
    21:00 +25°C° 0 mm 2 mps 673 mmHg 44%
    22:00 +24°C° 0 mm 2 mps 673 mmHg 48%
    23:00 +23°C° 0 mm 2 mps 673 mmHg 51%

    Day after tomorrow, 20 July, Friday

    Time Temperature Precipitation Wind Pressure Humidity
    00:00 +23°C° 0 mm 2 mps 673 mmHg 54%
    01:00 +21°C° 0 mm 2 mps 673 mmHg 56%
    02:00 +21°C° 0 mm 1 mps 673 mmHg 58%
    03:00 +21°C° 0 mm 1 mps 673 mmHg 61%
    04:00 +20°C° 0 mm 1 mps 672 mmHg 64%
    05:00 +20°C° 0 mm 1 mps 672 mmHg 67%
    06:00 +20°C° 0 mm 2 mps 673 mmHg 62%
    07:00 +23°C° 0 mm 2 mps 673 mmHg 58%
    08:00 +24°C° 0 mm 2 mps 674 mmHg 53%
    09:00 +25°C° 0 mm 2 mps 674 mmHg 49%
    10:00 +27°C° 0 mm 2 mps 674 mmHg 44%
    11:00 +28°C° 0 mm 2 mps 674 mmHg 39%
    12:00 +28°C° 0 mm 2 mps 674 mmHg 37%
    13:00 +29°C° 0 mm 2 mps 674 mmHg 36%
    14:00 +29°C° 0 mm 2 mps 674 mmHg 34%
    15:00 +29°C° 0 mm 2 mps 674 mmHg 34%
    16:00 +29°C° 0 mm 2 mps 674 mmHg 34%
    17:00 +29°C° 0 mm 2 mps 674 mmHg 33%
    18:00 +28°C° 0 mm 2 mps 674 mmHg 36%
    19:00 +27°C° 0 mm 2 mps 674 mmHg 38%
    20:00 +26°C° 0 mm 2 mps 674 mmHg 40%
    21:00 +25°C° 0 mm 2 mps 674 mmHg 43%
    22:00 +24°C° 0 mm 2 mps 674 mmHg 46%
    23:00 +23°C° 0 mm 2 mps 674 mmHg 49%

    21 July, Saturday

    Time Temperature Precipitation Wind Pressure Humidity
    00:00 +23°C° 0 mm 2 mps 674 mmHg 52%
    01:00 +21°C° 0 mm 2 mps 674 mmHg 56%
    02:00 +21°C° 0 mm 2 mps 673 mmHg 59%
    03:00 +20°C° 0 mm 2 mps 673 mmHg 62%
    04:00 +20°C° 0 mm 2 mps 673 mmHg 65%
    05:00 +19°C° 0 mm 2 mps 673 mmHg 68%
    06:00 +21°C° 0 mm 2 mps 674 mmHg 62%
    07:00 +23°C° 0 mm 2 mps 674 mmHg 57%
    08:00 +25°C° 0 mm 2 mps 675 mmHg 51%
    09:00 +26°C° 0 mm 2 mps 675 mmHg 46%
    10:00 +28°C° 0 mm 2 mps 675 mmHg 40%
    11:00 +29°C° 0 mm 2 mps 675 mmHg 34%
    12:00 +30°C° 0 mm 2 mps 675 mmHg 31%
    13:00 +31°C° 0 mm 2 mps 675 mmHg 29%
    14:00 +32°C° 0 mm 2 mps 675 mmHg 26%
    15:00 +32°C° 0 mm 2 mps 675 mmHg 26%
    16:00 +33°C° 0 mm 3 mps 675 mmHg 25%
    17:00 +33°C° 0 mm 3 mps 675 mmHg 25%
    18:00 +31°C° 0 mm 2 mps 675 mmHg 29%
    19:00 +29°C° 0 mm 2 mps 674 mmHg 33%
    20:00 +28°C° 0 mm 2 mps 674 mmHg 36%
    21:00 +27°C° 0 mm 2 mps 674 mmHg 39%
    22:00 +26°C° 0 mm 2 mps 674 mmHg 42%
    23:00 +25°C° 0 mm 2 mps 674 mmHg 44%

    22 July, Sunday

    Time Temperature Precipitation Wind Pressure Humidity
    00:00 +24°C° 0 mm 2 mps 674 mmHg 47%
    01:00 +24°C° 0 mm 2 mps 674 mmHg 49%
    02:00 +23°C° 0 mm 2 mps 674 mmHg 52%
    03:00 +23°C° 0 mm 2 mps 673 mmHg 55%
    04:00 +21°C° 0 mm 2 mps 673 mmHg 58%
    05:00 +22°C° 0 mm 1 mps 673 mmHg 61%
    06:00 +23°C° 0 mm 2 mps 674 mmHg 56%
    07:00 +25°C° 0 mm 2 mps 674 mmHg 52%
    08:00 +27°C° 0 mm 2 mps 674 mmHg 47%
    09:00 +28°C° 0 mm 2 mps 674 mmHg 42%
    10:00 +30°C° 0 mm 2 mps 674 mmHg 37%
    11:00 +31°C° 0 mm 2 mps 674 mmHg 32%
    12:00 +32°C° 0 mm 2 mps 674 mmHg 29%
    13:00 +34°C° 0 mm 2 mps 674 mmHg 27%
    14:00 +35°C° 0 mm 2 mps 673 mmHg 24%
    15:00 +35°C° 0 mm 3 mps 673 mmHg 24%
    16:00 +35°C° 0 mm 3 mps 673 mmHg 23%
    17:00 +35°C° 0 mm 3 mps 673 mmHg 23%
    18:00 +33°C° 0 mm 3 mps 673 mmHg 26%
    19:00 +30°C° 0 mm 2 mps 673 mmHg 30%
    20:00 +28°C° 0 mm 2 mps 672 mmHg 34%
    21:00 +27°C° 0 mm 2 mps 672 mmHg 36%
    22:00 +26°C° 0 mm 1 mps 672 mmHg 39%
    23:00 +26°C° 0 mm 1 mps 672 mmHg 41%

    23 July, Monday

    Time Temperature Precipitation Wind Pressure Humidity
    00:00 +25°C° 0 mm 1 mps 672 mmHg 43%
    01:00 +24°C° 0 mm 1 mps 672 mmHg 44%
    02:00 +24°C° 0 mm 1 mps 671 mmHg 46%
    03:00 +23°C° 0 mm 1 mps 671 mmHg 47%
    04:00 +23°C° 0 mm 1 mps 671 mmHg 49%
    05:00 +22°C° 0 mm 1 mps 671 mmHg 50%
    06:00 +24°C° 0 mm 1 mps 671 mmHg 45%
    07:00 +26°C° 0 mm 1 mps 672 mmHg 40%
    08:00 +28°C° 0 mm 1 mps 672 mmHg 35%
    09:00 +30°C° 0 mm 1 mps 672 mmHg 31%
    10:00 +31°C° 0 mm 1 mps 672 mmHg 28%
    11:00 +32°C° 0 mm 2 mps 672 mmHg 24%
    12:00 +34°C° 0 mm 2 mps 672 mmHg 23%
    13:00 +34°C° 0 mm 3 mps 672 mmHg 22%
    14:00 +35°C° 0 mm 3 mps 672 mmHg 21%
    15:00 +34°C° 0.1 mm 3 mps 671 mmHg 25%
    16:00 +33°C° 0.1 mm 4 mps 671 mmHg 28%
    17:00 +32°C° 0.1 mm 4 mps 671 mmHg 31%
    18:00 +30°C° 0.2 mm 3 mps 671 mmHg 37%
    19:00 +28°C° 0.2 mm 2 mps 671 mmHg 43%
    20:00 +27°C° 0.2 mm 2 mps 671 mmHg 49%
    21:00 +26°C° 0.2 mm 2 mps 671 mmHg 54%
    22:00 +25°C° 0.2 mm 2 mps 671 mmHg 59%
    23:00 +24°C° 0.2 mm 1 mps 671 mmHg 64%
    Show more